Погода в Талице

Россия / Липецкая область     52°42′36″N   38°43′26″E
темп.,
°C
ветер,
м/с
пор.,
м/с
влажн.,
%
обл.,
%
осадки,
мм/ч
давл.,
гПа
погр.,
м
14 мая, пт
пт1400:00+11в229260 0.0 101720
03:00+11в2291100 0.0 101713
06:00+13в239253 0.3 101671
09:00+18вюв5777100 0.3 1015455
12:00+21юв6865100 0.0 10151242
15:00+22ююв71369100 0.7 10131530
18:00+21ююв61271100 0.3 1011469
21:00+17юв31287100 0.5 1011229
15 мая, сб
сб1500:00+16ююв229128 1.3 101021
03:00+15ю3695100 1.6 1010117
06:00+16ю3596100 0.0 1010145
09:00+19ююз577492 0.0 1011475
12:00+21ююз6764100 0.0 10121071
15:00+22ююз68545 0.0 10121556
18:00+20ююз596935 0.3 1013405
21:00+15ююз34830 0.4 101451
16 мая, вс
вс1600:00+14ююз33840 0.0 101433
03:00+13юз22864 0.0 101511
06:00+14ююз118315 0.0 101530
09:00+19ююв34670 0.0 1015416
12:00+23ю34520 0.0 10151691
15:00+24ю244711 0.0 10142050
18:00+23юв1261100 0.0 1014239
21:00+18св337175 0.0 101423
17 мая, пн
пн1700:00+16всв3584100 0.6 101375
03:00+15всв369447 0.6 1013102
06:00+15всв4118685 0.0 1012228
09:00+21вюв586612 0.0 1012388
12:00+25юв6951100 0.0 1011897
15:00+26юв7125294 0.0 10101948
18:00+23юв7146496 0.0 1009587
21:00+19вюв5157797 0.0 1009350
18 мая, вт
вт1800:00+17юв5147081 0.0 1008318
03:00+15юв4117298 0.0 1008231
06:00+15юв4107935 0.0 1008233
09:00+20ююв6977100 0.0 1007500
12:00+22ююз51175100 0.1 1008869
15:00+23ю71064100 0.3 10091336
18:00+20ю588098 0.8 1009803
21:00+16ю4990100 2.7 1009217